User: anonymous   Login
Location: Unspecified
(0.0000°N, 0.0000°E)
Time: 00:56:34
(UTC+00:00)
Language:

CICERO 6 - Orbit

View from above orbital plane
View from above orbital plane
View from above satellite
View from above satellite

Ground track
Ground track

The orbit data is extracted from the following two-line orbital elements,

1 42793U 17036AE  17324.24927058 +.00001696 +00000-0 +78455-4 0  9991
2 42793 097.4310 022.2373 0012327 091.2209 269.0439 15.21460791022821
Epoch (UTC): 20 November 2017 05:58:56
Eccentricity: 0.0012327
inclination: 97.4310°
perigee height: 493 km
apogee height: 510 km
right ascension of ascending node: 22.2373°
argument of perigee: 91.2209°
revolutions per day: 15.21460791
mean anomaly at epoch: 269.0439°
orbit number at epoch: 2282

The dashed part of the orbit path shows where the satellite is in the earth's shadow,  

DLR